Погода в Мольке

Россия / Иркутская область     53°52′54″N   103°20′04″E
темп.,
°C
ветер,
м/с
пор.,
м/с
влажн.,
%
обл.,
%
осадки,
мм/ч
давл.,
гПа
погр.,
м
15 апреля, чт
чт1523:00−4зюз2290100 0.0 101822
02:00−3ююз2387100 0.0 101548
05:00−3ююв2392100 0.1 101350
08:00−1ююз3797100 2.1 1012454
11:000сз5995100 1.6 1013675
14:00+2ссз7107499 2.9 10171160
17:00+1ссз711675 0.5 10201219
20:00−2сз497883 0.5 1024217
16 апреля, пт
пт1623:00−5зсз229389 0.0 102620
02:00−6юз119510 0.0 102615
05:00−6ююв229484 0.0 102435
08:00−3ююв378567 0.0 1024193
11:00+2ю586772 0.0 1021457
14:00+5ю475170 0.0 1018387
17:00+6ююв365786 0.0 1015168
20:00+2юв22708 0.0 101410
17 апреля, сб
сб1723:000юв337493 0.0 101429
02:00−1ююв337991 0.0 101230
05:00−1ююв228433 0.0 101129
08:00+1ююв36805 0.0 1010131
11:00+5ю35705 0.0 1009244
14:00+9сз4562100 0.0 1007687
17:00+3ссз61175100 0.1 1013857
20:000с3778100 0.1 1016336
18 апреля, вс
вс1823:00−1ссз3582100 0.0 1018170
02:00−3с2579100 0.0 1018234
05:00−3ссв3585100 0.0 1018275
08:00−1всв4683100 0.0 1012379
11:000с228791 0.5 1014352
14:00+2сз576893 0.6 1015984
17:00+2сз6961100 0.1 10181184
20:00−1сз49727 0.1 1021208
19 апреля, пн
пн1923:00−4ссз119510 0.0 102413
02:00−4вюв119178 0.0 102412
05:00−4вюв228499 0.0 102362
08:00−2вюв4866100 0.0 1020427
11:00+3ююв7104469 0.0 1015870
14:00+6ююв71244100 0.0 1010924
17:00+8ююв6135691 0.0 1006653
20:00+7юв6146231 0.0 1003296